Year,Month,Day,Hour,Minute,Value (Times are PST for temperature in C)
2015,08,07,00,00,13.80
2015,08,07,00,01,13.80
2015,08,07,00,02,13.80
2015,08,07,00,03,13.80
2015,08,07,00,04,13.80
2015,08,07,00,05,13.80
2015,08,07,00,06,13.80
2015,08,07,00,07,13.80
2015,08,07,00,08,13.80
2015,08,07,00,09,13.80
2015,08,07,00,10,13.80
2015,08,07,00,11,13.80
2015,08,07,00,12,13.80
2015,08,07,00,13,13.80
2015,08,07,00,14,13.80
2015,08,07,00,15,13.80
2015,08,07,00,16,13.70
2015,08,07,00,17,13.70
2015,08,07,00,18,13.70
2015,08,07,00,19,13.70
2015,08,07,00,20,13.60
2015,08,07,00,21,13.60
2015,08,07,00,22,13.60
2015,08,07,00,23,13.60
2015,08,07,00,24,13.50
2015,08,07,00,25,13.50
2015,08,07,00,26,13.50
2015,08,07,00,27,13.50
2015,08,07,00,28,13.50
2015,08,07,00,29,13.50
2015,08,07,00,30,13.50
2015,08,07,00,31,13.50
2015,08,07,00,32,13.50
2015,08,07,00,33,13.40
2015,08,07,00,34,13.40
2015,08,07,00,35,13.40
2015,08,07,00,36,13.40
2015,08,07,00,37,13.40
2015,08,07,00,38,13.40
2015,08,07,00,39,13.40
2015,08,07,00,40,13.40
2015,08,07,00,41,13.40
2015,08,07,00,42,13.40
2015,08,07,00,43,13.40
2015,08,07,00,44,13.40
2015,08,07,00,45,13.40
2015,08,07,00,46,13.30
2015,08,07,00,47,13.30
2015,08,07,00,48,13.30
2015,08,07,00,49,13.30
2015,08,07,00,50,13.30
2015,08,07,00,51,13.30
2015,08,07,00,52,13.30
2015,08,07,00,53,13.30
2015,08,07,00,54,13.20
2015,08,07,00,55,13.20
2015,08,07,00,56,13.20
2015,08,07,00,57,13.20
2015,08,07,00,58,13.20
2015,08,07,00,59,13.20
2015,08,07,01,00,13.20
2015,08,07,01,01,13.10
2015,08,07,01,02,13.10
2015,08,07,01,03,13.20
2015,08,07,01,04,13.20
2015,08,07,01,05,13.20
2015,08,07,01,06,13.20
2015,08,07,01,07,13.20
2015,08,07,01,08,13.20
2015,08,07,01,09,13.20
2015,08,07,01,10,13.20
2015,08,07,01,11,13.20
2015,08,07,01,12,13.20
2015,08,07,01,13,13.10
2015,08,07,01,14,13.10
2015,08,07,01,15,13.10
2015,08,07,01,16,13.10
2015,08,07,01,17,13.10
2015,08,07,01,18,13.10
2015,08,07,01,19,13.10
2015,08,07,01,20,13.00
2015,08,07,01,21,13.00
2015,08,07,01,22,13.00
2015,08,07,01,23,12.90
2015,08,07,01,24,12.90
2015,08,07,01,25,12.90
2015,08,07,01,26,12.90
2015,08,07,01,27,12.90
2015,08,07,01,28,12.80
2015,08,07,01,29,12.80
2015,08,07,01,30,12.90
2015,08,07,01,31,12.90
2015,08,07,01,32,12.80
2015,08,07,01,33,12.80
2015,08,07,01,34,12.80
2015,08,07,01,35,12.80
2015,08,07,01,36,12.80
2015,08,07,01,37,12.80
2015,08,07,01,38,12.80
2015,08,07,01,39,12.70
2015,08,07,01,40,12.70
2015,08,07,01,41,12.70
2015,08,07,01,42,12.70
2015,08,07,01,43,12.70
2015,08,07,01,44,12.70
2015,08,07,01,45,12.70
2015,08,07,01,46,12.60
2015,08,07,01,47,12.60
2015,08,07,01,48,12.60
2015,08,07,01,49,12.60
2015,08,07,01,50,12.60
2015,08,07,01,51,12.60
2015,08,07,01,52,12.60
2015,08,07,01,53,12.50
2015,08,07,01,54,12.50
2015,08,07,01,55,12.50
2015,08,07,01,56,12.50
2015,08,07,01,57,12.40
2015,08,07,01,58,12.40
2015,08,07,01,59,12.40
2015,08,07,02,00,12.40
2015,08,07,02,01,12.40
2015,08,07,02,02,12.40
2015,08,07,02,03,12.40
2015,08,07,02,04,12.40
2015,08,07,02,05,12.40
2015,08,07,02,06,12.40
2015,08,07,02,07,12.40
2015,08,07,02,08,12.40
2015,08,07,02,09,12.50
2015,08,07,02,10,12.50
2015,08,07,02,11,12.40
2015,08,07,02,12,12.40
2015,08,07,02,13,12.40
2015,08,07,02,14,12.40
2015,08,07,02,15,12.40
2015,08,07,02,16,12.40
2015,08,07,02,17,12.40
2015,08,07,02,18,12.40
2015,08,07,02,19,12.40
2015,08,07,02,20,12.40
2015,08,07,02,21,12.40
2015,08,07,02,22,12.40
2015,08,07,02,23,12.40
2015,08,07,02,24,12.50
2015,08,07,02,25,12.60
2015,08,07,02,26,12.60
2015,08,07,02,27,12.70
2015,08,07,02,28,12.70
2015,08,07,02,29,12.70
2015,08,07,02,30,12.70
2015,08,07,02,31,12.60
2015,08,07,02,32,12.60
2015,08,07,02,33,12.60
2015,08,07,02,34,12.50
2015,08,07,02,35,12.50
2015,08,07,02,36,12.50
2015,08,07,02,37,12.50
2015,08,07,02,38,12.40
2015,08,07,02,39,12.50
2015,08,07,02,40,12.50
2015,08,07,02,41,12.50
2015,08,07,02,42,12.50
2015,08,07,02,43,12.50
2015,08,07,02,44,12.40
2015,08,07,02,45,12.40
2015,08,07,02,46,12.40
2015,08,07,02,47,12.40
2015,08,07,02,48,12.40
2015,08,07,02,49,12.40
2015,08,07,02,50,12.40
2015,08,07,02,51,12.40
2015,08,07,02,52,12.40
2015,08,07,02,53,12.40
2015,08,07,02,54,12.40
2015,08,07,02,55,12.30
2015,08,07,02,56,12.30
2015,08,07,02,57,12.20
2015,08,07,02,58,12.20
2015,08,07,02,59,12.20
2015,08,07,03,00,12.20
2015,08,07,03,01,12.20
2015,08,07,03,02,12.20
2015,08,07,03,03,12.20
2015,08,07,03,04,12.20
2015,08,07,03,05,12.20
2015,08,07,03,06,12.20
2015,08,07,03,07,12.20
2015,08,07,03,08,12.20
2015,08,07,03,09,12.20
2015,08,07,03,10,12.20
2015,08,07,03,11,12.20
2015,08,07,03,12,12.20
2015,08,07,03,13,12.20
2015,08,07,03,14,12.20
2015,08,07,03,15,12.10
2015,08,07,03,16,12.10
2015,08,07,03,17,12.10
2015,08,07,03,18,12.10
2015,08,07,03,19,12.10
2015,08,07,03,20,12.10
2015,08,07,03,21,12.10
2015,08,07,03,22,12.00
2015,08,07,03,23,12.00
2015,08,07,03,24,12.00
2015,08,07,03,25,12.00
2015,08,07,03,26,12.00
2015,08,07,03,27,11.90
2015,08,07,03,28,11.90
2015,08,07,03,29,11.90
2015,08,07,03,30,11.90
2015,08,07,03,31,11.90
2015,08,07,03,32,11.90
2015,08,07,03,33,11.90
2015,08,07,03,34,11.90
2015,08,07,03,35,11.90
2015,08,07,03,36,11.90
2015,08,07,03,37,11.90
2015,08,07,03,38,11.90
2015,08,07,03,39,12.00
2015,08,07,03,40,12.00
2015,08,07,03,41,12.10
2015,08,07,03,42,12.10
2015,08,07,03,43,12.10
2015,08,07,03,44,12.10
2015,08,07,03,45,12.10
2015,08,07,03,46,12.00
2015,08,07,03,47,12.00
2015,08,07,03,48,12.00
2015,08,07,03,49,11.90
2015,08,07,03,50,11.90
2015,08,07,03,51,11.90
2015,08,07,03,52,11.90
2015,08,07,03,53,11.90
2015,08,07,03,54,11.80
2015,08,07,03,55,11.80
2015,08,07,03,56,11.80
2015,08,07,03,57,11.80
2015,08,07,03,58,11.80
2015,08,07,03,59,11.70
2015,08,07,04,00,11.70
2015,08,07,04,01,11.70
2015,08,07,04,02,11.70
2015,08,07,04,03,11.70
2015,08,07,04,04,11.70
2015,08,07,04,05,11.70
2015,08,07,04,06,11.70
2015,08,07,04,07,11.80
2015,08,07,04,08,11.80
2015,08,07,04,09,11.80
2015,08,07,04,10,11.80
2015,08,07,04,11,11.80
2015,08,07,04,12,11.80
2015,08,07,04,13,11.80
2015,08,07,04,14,11.80
2015,08,07,04,15,11.80
2015,08,07,04,16,11.70
2015,08,07,04,17,11.70
2015,08,07,04,18,11.70
2015,08,07,04,19,11.70
2015,08,07,04,20,11.70
2015,08,07,04,21,11.70
2015,08,07,04,22,11.60
2015,08,07,04,23,11.60
2015,08,07,04,24,11.60
2015,08,07,04,25,11.50
2015,08,07,04,26,11.50
2015,08,07,04,27,11.50
2015,08,07,04,28,11.50
2015,08,07,04,29,11.40
2015,08,07,04,30,11.40
2015,08,07,04,31,11.40
2015,08,07,04,32,11.40
2015,08,07,04,33,11.40
2015,08,07,04,34,11.40
2015,08,07,04,35,11.40
2015,08,07,04,36,11.40
2015,08,07,04,37,11.40
2015,08,07,04,38,11.40
2015,08,07,04,39,11.40
2015,08,07,04,40,11.30
2015,08,07,04,41,11.30
2015,08,07,04,42,11.30
2015,08,07,04,43,11.30
2015,08,07,04,44,11.30
2015,08,07,04,45,11.30
2015,08,07,04,46,11.30
2015,08,07,04,47,11.30
2015,08,07,04,48,11.40
2015,08,07,04,49,11.40
2015,08,07,04,50,11.40
2015,08,07,04,51,11.40
2015,08,07,04,52,11.40
2015,08,07,04,53,11.40
2015,08,07,04,54,11.40
2015,08,07,04,55,11.40
2015,08,07,04,56,11.40
2015,08,07,04,57,11.40
2015,08,07,04,58,11.30
2015,08,07,04,59,11.30
2015,08,07,05,00,11.30
2015,08,07,05,01,11.30
2015,08,07,05,02,11.30
2015,08,07,05,03,11.30
2015,08,07,05,04,11.30
2015,08,07,05,05,11.30
2015,08,07,05,06,11.30
2015,08,07,05,07,11.30
2015,08,07,05,08,11.30
2015,08,07,05,09,11.30
2015,08,07,05,10,11.30
2015,08,07,05,11,11.30
2015,08,07,05,12,11.20
2015,08,07,05,13,11.20
2015,08,07,05,14,11.20
2015,08,07,05,15,11.20
2015,08,07,05,16,11.20
2015,08,07,05,17,11.20
2015,08,07,05,18,11.20
2015,08,07,05,19,11.20
2015,08,07,05,20,11.30
2015,08,07,05,21,11.30
2015,08,07,05,22,11.30
2015,08,07,05,23,11.30
2015,08,07,05,24,11.20
2015,08,07,05,25,11.20
2015,08,07,05,26,11.20
2015,08,07,05,27,11.20
2015,08,07,05,28,11.20
2015,08,07,05,29,11.20
2015,08,07,05,30,11.10
2015,08,07,05,31,11.10
2015,08,07,05,32,11.10
2015,08,07,05,33,11.10
2015,08,07,05,34,11.10
2015,08,07,05,35,11.10
2015,08,07,05,36,11.10
2015,08,07,05,37,11.10
2015,08,07,05,38,11.10
2015,08,07,05,39,11.10
2015,08,07,05,40,11.10
2015,08,07,05,41,11.10
2015,08,07,05,42,11.10
2015,08,07,05,43,11.00
2015,08,07,05,44,11.00
2015,08,07,05,45,11.00
2015,08,07,05,46,11.00
2015,08,07,05,47,11.00
2015,08,07,05,48,11.00
2015,08,07,05,49,11.00
2015,08,07,05,50,11.00
2015,08,07,05,51,11.00
2015,08,07,05,52,10.90
2015,08,07,05,53,10.90
2015,08,07,05,54,10.90
2015,08,07,05,55,10.90
2015,08,07,05,56,10.90
2015,08,07,05,57,10.90
2015,08,07,05,58,10.90
2015,08,07,05,59,10.90
2015,08,07,06,00,10.90
2015,08,07,06,01,10.90
2015,08,07,06,02,10.90
2015,08,07,06,03,10.90
2015,08,07,06,04,10.90
2015,08,07,06,05,10.90
2015,08,07,06,06,10.90
2015,08,07,06,07,10.80
2015,08,07,06,08,10.80
2015,08,07,06,09,10.80
2015,08,07,06,10,10.80
2015,08,07,06,11,10.80
2015,08,07,06,12,10.80
2015,08,07,06,13,10.80
2015,08,07,06,14,10.80
2015,08,07,06,15,10.80
2015,08,07,06,16,10.80
2015,08,07,06,17,10.80
2015,08,07,06,18,10.80
2015,08,07,06,19,10.90
2015,08,07,06,20,10.90
2015,08,07,06,21,10.90
2015,08,07,06,22,10.90
2015,08,07,06,23,10.90
2015,08,07,06,24,10.90
2015,08,07,06,25,10.90
2015,08,07,06,26,10.90
2015,08,07,06,27,10.90
2015,08,07,06,28,11.00
2015,08,07,06,29,11.00
2015,08,07,06,30,11.00
2015,08,07,06,31,11.00
2015,08,07,06,32,11.10
2015,08,07,06,33,11.00
2015,08,07,06,34,11.00
2015,08,07,06,35,11.10
2015,08,07,06,36,11.00
2015,08,07,06,37,11.00
2015,08,07,06,38,11.00
2015,08,07,06,39,11.00
2015,08,07,06,40,11.00
2015,08,07,06,41,11.00
2015,08,07,06,42,11.00
2015,08,07,06,43,10.90
2015,08,07,06,44,10.90
2015,08,07,06,45,10.90
2015,08,07,06,46,10.90
2015,08,07,06,47,10.90
2015,08,07,06,48,10.90
2015,08,07,06,49,10.90
2015,08,07,06,50,10.90
2015,08,07,06,51,10.90
2015,08,07,06,52,11.00
2015,08,07,06,53,11.00
2015,08,07,06,54,11.00
2015,08,07,06,55,11.10
2015,08,07,06,56,11.10
2015,08,07,06,57,11.10
2015,08,07,06,58,11.10
2015,08,07,06,59,11.10
2015,08,07,07,00,11.20
2015,08,07,07,01,11.20
2015,08,07,07,02,11.20
2015,08,07,07,03,11.20
2015,08,07,07,04,11.30
2015,08,07,07,05,11.30
2015,08,07,07,06,11.30
2015,08,07,07,07,11.30
2015,08,07,07,08,11.30
2015,08,07,07,09,11.30
2015,08,07,07,10,11.30
2015,08,07,07,11,11.30
2015,08,07,07,12,11.30
2015,08,07,07,13,11.30
2015,08,07,07,14,11.30
2015,08,07,07,15,11.30
2015,08,07,07,16,11.30
2015,08,07,07,17,11.30
2015,08,07,07,18,11.30
2015,08,07,07,19,11.30
2015,08,07,07,20,11.30
2015,08,07,07,21,11.30
2015,08,07,07,22,11.30
2015,08,07,07,23,11.30
2015,08,07,07,24,11.30
2015,08,07,07,25,11.30
2015,08,07,07,26,11.40
2015,08,07,07,27,11.40
2015,08,07,07,28,11.40
2015,08,07,07,29,11.40
2015,08,07,07,30,11.50
2015,08,07,07,31,11.60
2015,08,07,07,32,11.60
2015,08,07,07,33,11.60
2015,08,07,07,34,11.70
2015,08,07,07,35,11.70
2015,08,07,07,36,11.80
2015,08,07,07,37,11.80
2015,08,07,07,38,11.80
2015,08,07,07,39,11.90
2015,08,07,07,40,11.90
2015,08,07,07,41,12.00
2015,08,07,07,42,12.10
2015,08,07,07,43,12.20
2015,08,07,07,44,12.30
2015,08,07,07,45,12.30
2015,08,07,07,46,12.40
2015,08,07,07,47,12.40
2015,08,07,07,48,12.50
2015,08,07,07,49,12.60
2015,08,07,07,50,12.60
2015,08,07,07,51,12.70
2015,08,07,07,52,12.70
2015,08,07,07,53,12.80
2015,08,07,07,54,12.80
2015,08,07,07,55,12.90
2015,08,07,07,56,13.00
2015,08,07,07,57,13.00
2015,08,07,07,58,13.10
2015,08,07,07,59,13.20
2015,08,07,08,00,13.20
2015,08,07,08,01,13.30
2015,08,07,08,02,13.30
2015,08,07,08,03,13.30
2015,08,07,08,04,13.40
2015,08,07,08,05,13.50
2015,08,07,08,06,13.50
2015,08,07,08,07,13.60
2015,08,07,08,08,13.60
2015,08,07,08,09,13.70
2015,08,07,08,10,13.70
2015,08,07,08,11,13.80
2015,08,07,08,12,13.80
2015,08,07,08,13,13.80
2015,08,07,08,14,13.90
2015,08,07,08,15,13.90
2015,08,07,08,16,14.00
2015,08,07,08,17,14.10
2015,08,07,08,18,14.10
2015,08,07,08,19,14.20
2015,08,07,08,20,14.30
2015,08,07,08,21,14.30
2015,08,07,08,22,14.40
2015,08,07,08,23,14.50
2015,08,07,08,24,14.50
2015,08,07,08,25,14.60
2015,08,07,08,26,14.70
2015,08,07,08,27,14.80
2015,08,07,08,28,14.80
2015,08,07,08,29,14.90
2015,08,07,08,30,15.00
2015,08,07,08,31,15.00
2015,08,07,08,32,15.10
2015,08,07,08,33,15.20
2015,08,07,08,34,15.20
2015,08,07,08,35,15.20
2015,08,07,08,36,15.30
2015,08,07,08,37,15.30
2015,08,07,08,38,15.30
2015,08,07,08,39,15.30
2015,08,07,08,40,15.30
2015,08,07,08,41,15.30
2015,08,07,08,42,15.30
2015,08,07,08,43,15.30
2015,08,07,08,44,15.30
2015,08,07,08,45,15.40
2015,08,07,08,46,15.40
2015,08,07,08,47,15.40
2015,08,07,08,48,15.50
2015,08,07,08,49,15.50
2015,08,07,08,50,15.60
2015,08,07,08,51,15.60
2015,08,07,08,52,15.60
2015,08,07,08,53,15.60
2015,08,07,08,54,15.70
2015,08,07,08,55,15.70
2015,08,07,08,56,15.70
2015,08,07,08,57,15.70
2015,08,07,08,58,15.70
2015,08,07,08,59,15.70
2015,08,07,09,00,15.70
2015,08,07,09,01,15.80
2015,08,07,09,02,15.80
2015,08,07,09,03,15.80
2015,08,07,09,04,15.80
2015,08,07,09,05,15.80
2015,08,07,09,06,15.80
2015,08,07,09,07,15.80
2015,08,07,09,08,15.80
2015,08,07,09,09,15.90
2015,08,07,09,10,15.90
2015,08,07,09,11,16.00
2015,08,07,09,12,16.00
2015,08,07,09,13,16.00
2015,08,07,09,14,16.00
2015,08,07,09,15,16.00
2015,08,07,09,16,16.10
2015,08,07,09,17,16.10
2015,08,07,09,18,16.10
2015,08,07,09,19,16.20
2015,08,07,09,20,16.20
2015,08,07,09,21,16.20
2015,08,07,09,22,16.30
2015,08,07,09,23,16.30
2015,08,07,09,24,16.40
2015,08,07,09,25,16.40
2015,08,07,09,26,16.50
2015,08,07,09,27,16.60
2015,08,07,09,28,16.60
2015,08,07,09,29,16.60
2015,08,07,09,30,16.60
2015,08,07,09,31,16.60
2015,08,07,09,32,16.50
2015,08,07,09,33,16.40
2015,08,07,09,34,16.40
2015,08,07,09,35,16.30
2015,08,07,09,36,16.30
2015,08,07,09,37,16.40
2015,08,07,09,38,16.40
2015,08,07,09,39,16.50
2015,08,07,09,40,16.50
2015,08,07,09,41,16.60
2015,08,07,09,42,16.60
2015,08,07,09,43,16.70
2015,08,07,09,44,16.70
2015,08,07,09,45,16.80
2015,08,07,09,46,16.80
2015,08,07,09,47,16.90
2015,08,07,09,48,17.00
2015,08,07,09,49,17.10
2015,08,07,09,50,17.20
2015,08,07,09,51,17.20
2015,08,07,09,52,17.30
2015,08,07,09,53,17.30
2015,08,07,09,54,17.40
2015,08,07,09,55,17.40
2015,08,07,09,56,17.50
2015,08,07,09,57,17.60
2015,08,07,09,58,17.70
2015,08,07,09,59,17.80
2015,08,07,10,00,18.00
2015,08,07,10,01,18.10
2015,08,07,10,02,18.10
2015,08,07,10,03,18.20
2015,08,07,10,04,18.30
2015,08,07,10,05,18.40
2015,08,07,10,06,18.50
2015,08,07,10,07,18.60
2015,08,07,10,08,18.70
2015,08,07,10,09,18.70
2015,08,07,10,10,18.70
2015,08,07,10,11,18.70
2015,08,07,10,12,18.70
2015,08,07,10,13,18.70
2015,08,07,10,14,18.70
2015,08,07,10,15,18.90
2015,08,07,10,16,19.00
2015,08,07,10,17,19.10
2015,08,07,10,18,19.20
2015,08,07,10,19,19.40
2015,08,07,10,20,19.50
2015,08,07,10,21,19.60
2015,08,07,10,22,19.60
2015,08,07,10,23,19.60
2015,08,07,10,24,19.60
2015,08,07,10,25,19.50
2015,08,07,10,26,19.40
2015,08,07,10,27,19.40
2015,08,07,10,28,19.40
2015,08,07,10,29,19.40
2015,08,07,10,30,19.30
2015,08,07,10,31,19.30
2015,08,07,10,32,19.40
2015,08,07,10,33,19.40
2015,08,07,10,34,19.40
2015,08,07,10,35,19.40
2015,08,07,10,36,19.40
2015,08,07,10,37,19.50
2015,08,07,10,38,19.50
2015,08,07,10,39,19.50
2015,08,07,10,40,19.60
2015,08,07,10,41,19.60
2015,08,07,10,42,19.70
2015,08,07,10,43,19.70
2015,08,07,10,44,19.60
2015,08,07,10,45,19.60
2015,08,07,10,46,19.70
2015,08,07,10,47,19.70
2015,08,07,10,48,19.70
2015,08,07,10,49,19.70
2015,08,07,10,50,19.70
2015,08,07,10,51,19.60
2015,08,07,10,52,19.60
2015,08,07,10,53,19.70
2015,08,07,10,54,19.70
2015,08,07,10,55,19.70
2015,08,07,10,56,19.80
2015,08,07,10,57,19.80
2015,08,07,10,58,19.80
2015,08,07,10,59,19.80
2015,08,07,11,00,19.80
2015,08,07,11,01,19.90
2015,08,07,11,02,19.90
2015,08,07,11,03,20.00
2015,08,07,11,04,20.10
2015,08,07,11,05,20.20
2015,08,07,11,06,20.30
2015,08,07,11,07,20.30
2015,08,07,11,08,20.30
2015,08,07,11,09,20.20
2015,08,07,11,10,20.10
2015,08,07,11,11,20.10
2015,08,07,11,12,20.00
2015,08,07,11,13,19.90
2015,08,07,11,14,19.90
2015,08,07,11,15,19.80
2015,08,07,11,16,19.80
2015,08,07,11,17,19.80
2015,08,07,11,18,19.80
2015,08,07,11,19,19.80
2015,08,07,11,20,19.90
2015,08,07,11,21,19.90
2015,08,07,11,22,20.00
2015,08,07,11,23,20.10
2015,08,07,11,24,20.10
2015,08,07,11,25,20.10
2015,08,07,11,26,20.10
2015,08,07,11,27,20.20
2015,08,07,11,28,20.20
2015,08,07,11,29,20.20
2015,08,07,11,30,20.20
2015,08,07,11,31,20.20
2015,08,07,11,32,20.10
2015,08,07,11,33,20.10
2015,08,07,11,34,20.00
2015,08,07,11,35,19.90
2015,08,07,11,36,19.70
2015,08,07,11,37,19.60
2015,08,07,11,38,19.40
2015,08,07,11,39,19.30
2015,08,07,11,40,19.20
2015,08,07,11,41,19.10
2015,08,07,11,42,19.00
2015,08,07,11,43,18.90
2015,08,07,11,44,18.80
2015,08,07,11,45,18.80
2015,08,07,11,46,18.70
2015,08,07,11,47,18.70
2015,08,07,11,48,18.60
2015,08,07,11,49,18.70
2015,08,07,11,50,18.60
2015,08,07,11,51,18.60
2015,08,07,11,52,18.60
2015,08,07,11,53,18.60
2015,08,07,11,54,18.60
2015,08,07,11,55,18.70
2015,08,07,11,56,18.80
2015,08,07,11,57,18.90
2015,08,07,11,58,19.10
2015,08,07,11,59,19.20
2015,08,07,12,00,19.30
2015,08,07,12,01,19.40
2015,08,07,12,02,19.40
2015,08,07,12,03,19.50
2015,08,07,12,04,19.50
2015,08,07,12,05,19.60
2015,08,07,12,06,19.60
2015,08,07,12,07,19.70
2015,08,07,12,08,19.80
2015,08,07,12,09,19.80
2015,08,07,12,10,19.80
2015,08,07,12,11,19.90
2015,08,07,12,12,19.80
2015,08,07,12,13,19.80
2015,08,07,12,14,19.80
2015,08,07,12,15,19.80
2015,08,07,12,16,19.80
2015,08,07,12,17,19.90
2015,08,07,12,18,19.90
2015,08,07,12,19,19.90
2015,08,07,12,20,20.00
2015,08,07,12,21,20.10
2015,08,07,12,22,20.10
2015,08,07,12,23,20.20
2015,08,07,12,24,20.30
2015,08,07,12,25,20.40
2015,08,07,12,26,20.60
2015,08,07,12,27,20.70
2015,08,07,12,28,20.70
2015,08,07,12,29,20.70
2015,08,07,12,30,20.70
2015,08,07,12,31,20.70
2015,08,07,12,32,20.70
2015,08,07,12,33,20.70
2015,08,07,12,34,20.70
2015,08,07,12,35,20.80
2015,08,07,12,36,20.90
2015,08,07,12,37,21.10
2015,08,07,12,38,21.20
2015,08,07,12,39,21.40
2015,08,07,12,40,21.50
2015,08,07,12,41,21.70
2015,08,07,12,42,21.80
2015,08,07,12,43,21.90
2015,08,07,12,44,22.10
2015,08,07,12,45,22.30
2015,08,07,12,46,22.40
2015,08,07,12,47,22.60
2015,08,07,12,48,22.70
2015,08,07,12,49,22.80
2015,08,07,12,50,22.80
2015,08,07,12,51,22.80
2015,08,07,12,52,22.80
2015,08,07,12,53,22.90
2015,08,07,12,54,23.10
2015,08,07,12,55,23.10
2015,08,07,12,56,23.20
2015,08,07,12,57,23.20
2015,08,07,12,58,23.30
2015,08,07,12,59,23.30
2015,08,07,13,00,23.30
2015,08,07,13,01,23.30
2015,08,07,13,02,23.30
2015,08,07,13,03,23.30
2015,08,07,13,04,23.30
2015,08,07,13,05,23.40
2015,08,07,13,06,23.50
2015,08,07,13,07,23.40
2015,08,07,13,08,23.40
2015,08,07,13,09,23.30
2015,08,07,13,10,23.30
2015,08,07,13,11,23.20
2015,08,07,13,12,23.10
2015,08,07,13,13,23.00
2015,08,07,13,14,22.90
2015,08,07,13,15,22.90
2015,08,07,13,16,23.00
2015,08,07,13,17,23.20
2015,08,07,13,18,23.40
2015,08,07,13,19,23.50
2015,08,07,13,20,23.70
2015,08,07,13,21,23.90
2015,08,07,13,22,24.10
2015,08,07,13,23,24.30
2015,08,07,13,24,24.40
2015,08,07,13,25,24.50
2015,08,07,13,26,24.40
2015,08,07,13,27,24.30
2015,08,07,13,28,24.30
2015,08,07,13,29,24.30
2015,08,07,13,30,24.20
2015,08,07,13,31,24.10
2015,08,07,13,32,24.10
2015,08,07,13,33,24.00
2015,08,07,13,34,24.00
2015,08,07,13,35,24.10
2015,08,07,13,36,24.20
2015,08,07,13,37,24.20
2015,08,07,13,38,24.20
2015,08,07,13,39,24.20
2015,08,07,13,40,24.20
2015,08,07,13,41,24.10
2015,08,07,13,42,24.10
2015,08,07,13,43,24.10
2015,08,07,13,44,24.10
2015,08,07,13,45,24.10
2015,08,07,13,46,24.10
2015,08,07,13,47,24.00
2015,08,07,13,48,24.00
2015,08,07,13,49,23.90
2015,08,07,13,50,23.90
2015,08,07,13,51,23.90
2015,08,07,13,52,23.90
2015,08,07,13,53,24.00
2015,08,07,13,54,24.00
2015,08,07,13,55,24.10
2015,08,07,13,56,24.20
2015,08,07,13,57,24.20
2015,08,07,13,58,24.20
2015,08,07,13,59,24.20
2015,08,07,14,00,24.20
2015,08,07,14,01,24.20
2015,08,07,14,02,24.20
2015,08,07,14,03,24.10
2015,08,07,14,04,24.20
2015,08,07,14,05,24.20
2015,08,07,14,06,24.20
2015,08,07,14,07,24.30
2015,08,07,14,08,24.30
2015,08,07,14,09,24.30
2015,08,07,14,10,24.30
2015,08,07,14,11,24.30
2015,08,07,14,12,24.30
2015,08,07,14,13,24.30
2015,08,07,14,14,24.40
2015,08,07,14,15,24.50
2015,08,07,14,16,24.70
2015,08,07,14,17,24.80
2015,08,07,14,18,25.00
2015,08,07,14,19,25.10
2015,08,07,14,20,25.20
2015,08,07,14,21,25.20
2015,08,07,14,22,25.30
2015,08,07,14,23,25.40
2015,08,07,14,24,25.40
2015,08,07,14,25,25.40
2015,08,07,14,26,25.30
2015,08,07,14,27,25.40
2015,08,07,14,28,25.40
2015,08,07,14,29,25.40
2015,08,07,14,30,25.20
2015,08,07,14,31,25.10
2015,08,07,14,32,25.00
2015,08,07,14,33,24.90
2015,08,07,14,34,24.90
2015,08,07,14,35,25.00
2015,08,07,14,36,25.10
2015,08,07,14,37,25.10
2015,08,07,14,38,25.20
2015,08,07,14,39,25.30
2015,08,07,14,40,25.40
2015,08,07,14,41,25.40
2015,08,07,14,42,25.30
2015,08,07,14,43,25.20
2015,08,07,14,44,25.10
2015,08,07,14,45,24.80
2015,08,07,14,46,24.60
2015,08,07,14,47,24.40
2015,08,07,14,48,24.30
2015,08,07,14,49,24.30
2015,08,07,14,50,24.30
2015,08,07,14,51,24.30
2015,08,07,14,52,24.20
2015,08,07,14,53,24.10
2015,08,07,14,54,24.00
2015,08,07,14,55,23.90
2015,08,07,14,56,23.90
2015,08,07,14,57,23.80
2015,08,07,14,58,23.80
2015,08,07,14,59,23.70
2015,08,07,15,00,23.70
2015,08,07,15,01,23.60
2015,08,07,15,02,23.60
2015,08,07,15,03,23.60
2015,08,07,15,04,23.70
2015,08,07,15,05,23.70
2015,08,07,15,06,23.80
2015,08,07,15,07,23.80
2015,08,07,15,08,23.80
2015,08,07,15,09,23.80
2015,08,07,15,10,23.90
2015,08,07,15,11,23.90
2015,08,07,15,12,23.90
2015,08,07,15,13,24.00
2015,08,07,15,14,24.00
2015,08,07,15,15,24.10
2015,08,07,15,16,24.20
2015,08,07,15,17,24.30
2015,08,07,15,18,24.50
2015,08,07,15,19,24.70
2015,08,07,15,20,24.80
2015,08,07,15,21,24.80
2015,08,07,15,22,24.90
2015,08,07,15,23,25.00
2015,08,07,15,24,25.10
2015,08,07,15,25,25.30
2015,08,07,15,26,25.40
2015,08,07,15,27,25.40
2015,08,07,15,28,25.50
2015,08,07,15,29,25.60
2015,08,07,15,30,25.70
2015,08,07,15,31,25.70
2015,08,07,15,32,25.70
2015,08,07,15,33,25.70
2015,08,07,15,34,25.70
2015,08,07,15,35,25.60
2015,08,07,15,36,25.50
2015,08,07,15,37,25.40
2015,08,07,15,38,25.30
2015,08,07,15,39,25.20
2015,08,07,15,40,25.10
2015,08,07,15,41,25.00
2015,08,07,15,42,25.00
2015,08,07,15,43,24.90
2015,08,07,15,44,24.90
2015,08,07,15,45,24.90
2015,08,07,15,46,24.80
2015,08,07,15,47,24.70
2015,08,07,15,48,24.60
2015,08,07,15,49,24.50
2015,08,07,15,50,24.40
2015,08,07,15,51,24.30
2015,08,07,15,52,24.30
2015,08,07,15,53,24.30
2015,08,07,15,54,24.30
2015,08,07,15,55,24.40
2015,08,07,15,56,24.50
2015,08,07,15,57,24.40
2015,08,07,15,58,24.40
2015,08,07,15,59,24.40
2015,08,07,16,00,24.30
2015,08,07,16,01,24.30
2015,08,07,16,02,24.30
2015,08,07,16,03,24.40
2015,08,07,16,04,24.50
2015,08,07,16,05,24.60
2015,08,07,16,06,24.80
2015,08,07,16,07,24.90
2015,08,07,16,08,25.10
2015,08,07,16,09,25.30
2015,08,07,16,10,25.40
2015,08,07,16,11,25.50
2015,08,07,16,12,25.60
2015,08,07,16,13,25.60
2015,08,07,16,14,25.60
2015,08,07,16,15,25.50
2015,08,07,16,16,25.40
2015,08,07,16,17,25.40
2015,08,07,16,18,25.50
2015,08,07,16,19,25.60
2015,08,07,16,20,25.60
2015,08,07,16,21,25.80
2015,08,07,16,22,25.90
2015,08,07,16,23,25.90
2015,08,07,16,24,25.80
2015,08,07,16,25,25.80
2015,08,07,16,26,25.70
2015,08,07,16,27,25.70
2015,08,07,16,28,25.60
2015,08,07,16,29,25.50
2015,08,07,16,30,25.40
2015,08,07,16,31,25.50
2015,08,07,16,32,25.50
2015,08,07,16,33,25.40
2015,08,07,16,34,25.20
2015,08,07,16,35,25.10
2015,08,07,16,36,25.00
2015,08,07,16,37,24.90
2015,08,07,16,38,24.80
2015,08,07,16,39,24.70
2015,08,07,16,40,24.60
2015,08,07,16,41,24.60
2015,08,07,16,42,24.60
2015,08,07,16,43,24.70
2015,08,07,16,44,24.80
2015,08,07,16,45,24.90
2015,08,07,16,46,25.10
2015,08,07,16,47,25.30
2015,08,07,16,48,25.40
2015,08,07,16,49,25.60
2015,08,07,16,50,25.70
2015,08,07,16,51,25.70
2015,08,07,16,52,25.70
2015,08,07,16,53,25.80
2015,08,07,16,54,25.80
2015,08,07,16,55,25.80
2015,08,07,16,56,25.70
2015,08,07,16,57,25.50
2015,08,07,16,58,25.40
2015,08,07,16,59,25.30
2015,08,07,17,00,25.20
2015,08,07,17,01,25.20
2015,08,07,17,02,25.20
2015,08,07,17,03,25.30
2015,08,07,17,04,25.40
2015,08,07,17,05,25.50
2015,08,07,17,06,25.60
2015,08,07,17,07,25.60
2015,08,07,17,08,25.50
2015,08,07,17,09,25.40
2015,08,07,17,10,25.30
2015,08,07,17,11,25.10
2015,08,07,17,12,25.00
2015,08,07,17,13,25.00
2015,08,07,17,14,25.00
2015,08,07,17,15,25.10
2015,08,07,17,16,25.10
2015,08,07,17,17,25.20
2015,08,07,17,18,25.30
2015,08,07,17,19,25.30